Regional Weather Roundup
Issued by NWS New Orleans/Baton Rouge, LA

Home | Current Version | Previous Version | Graphics & Text | Print | Product List | Glossary On
Versions: 1 2 3 4 5 6 7 8 9 10 11 12 13 14 15 16 17 18 19 20 21 22 23 24 25 26 27 28 29 30 31 32 33 34 35 36 37 38 39 40 41 42 43 44 45 46 47 48 49 50
445
ASUS44 KLIX 230305
RWRLIX
NEW ORLEANS REGIONAL WEATHER ROUNDUP
NATIONAL WEATHER SERVICE NEW ORLEANS LA
1000 PM CDT TUE JUL 22 2014

NOTE: "FAIR" INDICATES FEW OR NO CLOUDS BELOW 12,000 FEET WITH NO
      SIGNIFICANT WEATHER AND/OR OBSTRUCTIONS TO VISIBILITY.
      SKY/WX - SKY CONDITION AND SIGNIFICANT WEATHER.
      TMP - AIR TEMPERATURE.     DP    - DEWPOINT TEMPERATURE.
      RH  - RELATIVE HUMIDITY.   PRES  - PRESSURE.
      HI  - HEAT INDEX.          WCI   - WIND CHILL INDEX.

*  THESE STATIONS ARE NOT NWS OR FAA STATIONS AND ARE NOT UNDER
   NWS QUALITY CONTROL.

LAZ038-040-048-061>063-065>067-069-230400-
SOUTHEAST LOUISIANA

CITY           SKY/WX    TMP DP  RH WIND       PRES   REMARKS
N.O. AUDUBON     N/A     81  73  74 MISG        N/A
N.O. INTL ARPT MOCLDY    80  73  79 E5        30.03R
N.O. LAKEFRONT CLOUDY    81  72  74 NE14      30.03R
N.O. DOWNTOWN*   N/A     81  70  69 NE5       30.04R
SLIDELL        CLOUDY    74  69  85 CALM      30.03R
BATON ROUGE    MOCLDY    74  71  91 CALM      30.02S
BOOTHVILLE     PTCLDY    79  73  82 SE6       30.04R
BELLE CHASSE   PTCLDY    78  72  81 CALM      30.02R
BOGALUSA*        N/A     73  70  89 CALM      30.05S FOG
GALLIANO*      NOT AVBL
NEW ROADS*       N/A     73  72  95 CALM      30.03S
GONZALES*        N/A     79  75  88 CALM      30.02R
HAMMOND*       CLOUDY    77  70  78 SE3       30.04F
HOUMA*         PTCLDY    76  72  86 NE3       30.02R
PORT FOURCHON* CLEAR     82  77  83 S3        30.03S

$$

MSZ070-080>082-230400-
SOUTHERN MISSISSIPPI

CITY           SKY/WX    TMP DP  RH WIND       PRES   REMARKS
MCCOMB         CLOUDY    73  70  90 N3        30.05F
GULFPORT       MOCLDY    77  69  76 NE8       30.04R
BILOXI         NOT AVBL
PASCAGOULA     CLEAR     74  72  93 CALM      30.05R

$$

COASTAL OBSERVATIONS
LAKE AND NEARSHORE STATIONS

STATION/POSITION TIME  TEMP    WIND        PRES    WAVE
                       AIR SEA DIR/SP/G            HT/PER
                 (UTC) (F)     (DEG/KT/KT) (MB)    (FT/S)
PASCAGOULA       0300   77      80/  8/ 10 1017.2
WAVELAND YACHT   0300   76      70/  9/ 12 1016.5
GRAND ISLE       0300   81 85  120/  3/  7 1017.1
SOUTHWEST PASS   0300   81 85  150/  5/  7 1017.2
NEW CANAL        0300   81 83   80/  7/ 10 1017.3
SHELL BEACH      0300   81 82   80/  8/ 10 1017.0

OFFSHORE STATIONS

STATION/POSITION TIME  TEMP    WIND        PRES    WAVE
                       AIR SEA DIR/SP/G            HT/PER
                 (UTC) (F)     (DEG/KT/KT) (MB)    (FT/S)

$$




USA.gov is the U.S. government's official web portal to all federal, state and local government web resources and services.